This demonstration page uses our WeatherBlox Daily Observations layout. Learn more.

Left ArrowRight Arrow

40.92945, -100.16068

Hourly Observations for November 20, 2018

Temp ( °F °C ) Dew Point ( °F °C ) Humidity (%) Winds ( mph kmh ) Pressure ( in mb ) Visibility ( mi km ) Precip ( " mm )
12:10 am 00:10 Cloudy 33 0.7 31 -0.8 90 90 Calm 30.33 1027 10 16.0934 0 0
12:35 am 00:35 Cloudy 34 1.2 31 -0.5 89 89 SW 5 7 30.36 1028 10 16.0934 0 0
12:55 am 00:55 Cloudy 33 0.5 30 -1 90 90 Calm 30.36 1028 10 16.0934 0 0
1:15 am 01:15 Cloudy 34 0.9 31 -0.8 89 89 Calm 30.36 1028 10 16.0934 0 0
1:35 am 01:35 Cloudy 32 0 29 -1.5 90 90 Calm 30.36 1028 10 16.0934 0 0
1:55 am 01:55 Partly Cloudy 30 -1 27 -2.6 89 89 Calm 30.39 1029 10 16.0934 0 0
2:15 am 02:15 Clear 30 -1 28 -2.3 91 91 Calm 30.36 1028 10 16.0934 0 0
2:35 am 02:35 Clear 28 -2.5 26 -3.5 93 93 Calm 30.36 1028 10 16.0934 0 0
2:55 am 02:55 Clear 28 -2 27 -3 93 93 Calm 30.36 1028 7 11.26538 0 0
3:15 am 03:15 Clear 28 -2.5 26 -3.2 95 95 Calm 30.36 1028 10 16.0934 0 0
3:35 am 03:35 Clear 27 -2.6 26 -3.4 94 94 Calm 30.36 1028 7 11.26538 0 0
3:55 am 03:55 Clear with Mist and Fog 25 -3.7 24 -4.6 94 94 Calm 30.39 1029 2.5 4.02335 0 0
4:15 am 04:15 Clear 27 -3 25 -3.9 94 94 Calm 30.36 1028 10 16.0934 0 0
4:35 am 04:35 Clear 28 -2 27 -2.8 94 94 W 5 7 30.36 1028 10 16.0934 0 0
4:55 am 04:55 Clear 26 -3.2 24 -4.5 91 91 WSW 3 6 30.36 1028 10 16.0934 0 0
5:15 am 05:15 Clear 27 -2.9 24 -4.3 90 90 WSW 6 9 30.33 1027 10 16.0934 0 0
5:35 am 05:35 Clear 27 -2.9 24 -4.2 91 91 WSW 6 9 30.33 1027 10 16.0934 0 0
5:55 am 05:55 Clear 27 -2.8 24 -4.3 90 90 WSW 5 7 30.33 1027 10 16.0934 0 0
6:15 am 06:15 Clear 28 -2.5 25 -3.8 91 91 Calm 30.33 1027 10 16.0934 0 0
6:35 am 06:35 Clear 27 -2.6 25 -4.1 90 90 WSW 3 6 30.33 1027 10 16.0934 0 0
6:55 am 06:55 Clear 26 -3.5 23 -5.1 89 89 W 3 6 30.33 1027 10 16.0934 0 0
7:15 am 07:15 Clear 24 -4.2 22 -5.7 89 89 WNW 6 9 30.36 1028 10 16.0934 0 0
7:35 am 07:35 Sunny 24 -4.7 21 -6.2 89 89 NW 3 6 30.36 1028 10 16.0934 0 0
7:55 am 07:55 Sunny 24 -4.4 22 -5.7 91 91 W 3 6 30.36 1028 10 16.0934 0 0
8:15 am 08:15 Sunny 26 -3.4 24 -4.5 92 92 WNW 5 7 30.33 1027 10 16.0934 0 0
8:35 am 08:35 Sunny 28 -2.3 26 -3.3 93 93 WNW 3 6 30.33 1027 10 16.0934 0 0
8:55 am 08:55 Sunny 30 -1 28 -2.3 91 91 WNW 3 6 30.33 1027 10 16.0934 0 0
9:15 am 09:15 Sunny 31 -0.4 28 -2 89 89 Calm 30.3 1026 10 16.0934 0 0
9:35 am 09:35 Sunny 34 0.9 31 -0.8 89 89 WNW 5 7 30.3 1026 10 16.0934 0 0
9:55 am 09:55 Sunny 36 2.2 31 -0.5 83 83 WNW 6 9 30.3 1026 10 16.0934 0 0
10:15 am 10:15 Sunny 38 3.3 31 -0.3 78 78 W 6 9 30.27 1025 10 16.0934 0 0
10:35 am 10:35 Sunny 41 4.8 32 0 71 71 WNW 5 7 30.27 1025 10 16.0934 0 0
10:55 am 10:55 Sunny 43 6.3 33 0.4 66 66 W 6 9 30.24 1024 10 16.0934 0 0
11:15 am 11:15 Sunny 46 7.7 33 0.4 60 60 W 5 7 30.24 1024 10 16.0934 0 0
11:35 am 11:35 Sunny 48 9 33 0.6 56 56 WSW 3 6 30.21 1023 10 16.0934 0 0
11:55 am 11:55 Sunny 52 10.9 32 0.1 48 48 WSW 8 13 30.18 1022 10 16.0934 0 0
12:15 pm 12:15 Sunny 54 12 30 -1 41 41 WSW 10 17 30.15 1021 10 16.0934 0 0
12:35 pm 12:35 Sunny 55 12.6 28 -2.3 36 36 W 17 28 30.12 1020 10 16.0934 0 0
12:55 pm 12:55 Sunny 56 13.1 28 -2.3 35 35 WSW 13 20 30.12 1020 10 16.0934 0 0
1:15 pm 13:15 Sunny 56 13.3 28 -2 35 35 W 14 22 30.09 1019 10 16.0934 0 0
1:35 pm 13:35 Sunny 56 13.3 29 -1.7 36 36 WSW 10 17 30.09 1019 10 16.0934 0 0
1:55 pm 13:55 Sunny 56 13.6 29 -1.7 35 35 W 15 24 30.09 1019 10 16.0934 0 0
2:15 pm 14:15 Sunny 57 14.1 29 -1.8 34 34 SW 13 20 30.06 1018 10 16.0934 0 0
2:35 pm 14:35 Sunny 58 14.4 27 -2.6 31 31 WSW 10 17 30.06 1018 10 16.0934 0 0
2:55 pm 14:55 Sunny 58 14.7 27 -3 30 30 WSW 10 17 30.06 1018 10 16.0934 0 0
3:15 pm 15:15 Sunny 58 14.5 26 -3.3 29 29 WSW 10 17 30.06 1018 10 16.0934 0 0
3:35 pm 15:35 Sunny 58 14.6 26 -3.5 29 29 WSW 9 15 30.06 1018 10 16.0934 0 0
3:55 pm 15:55 Sunny 58 14.5 26 -3.4 29 29 W 12 19 30.06 1018 10 16.0934 0 0
4:15 pm 16:15 Sunny 57 14 26 -3.5 30 30 WSW 7 11 30.09 1019 10 16.0934 0 0
4:35 pm 16:35 Sunny 55 13 27 -3 33 33 WSW 5 7 30.09 1019 10 16.0934 0 0
4:55 pm 16:55 Sunny 52 11.3 27 -2.9 37 37 WSW 6 9 30.09 1019 10 16.0934 0 0
5:15 pm 17:15 Sunny 49 9.2 27 -3 43 43 WSW 6 9 30.12 1020 10 16.0934 0 0
5:35 pm 17:35 Clear 47 8.2 26 -3.5 44 44 SW 8 13 30.12 1020 10 16.0934 0 0
5:55 pm 17:55 Clear 46 7.5 26 -3.3 47 47 WSW 6 9 30.15 1021 10 16.0934 0 0
6:15 pm 18:15 Clear 42 5.8 26 -3.6 51 51 SW 7 11 30.15 1021 10 16.0934 0 0
6:35 pm 18:35 Clear 42 5.5 25 -3.7 52 52 SW 7 11 30.15 1021 10 16.0934 0 0
6:55 pm 18:55 Clear 38 3.5 25 -3.7 60 60 SW 3 6 30.18 1022 10 16.0934 0 0
7:15 pm 19:15 Clear 40 4.4 26 -3.5 57 57 WSW 5 7 30.18 1022 10 16.0934 0 0
7:35 pm 19:35 Clear 36 2.1 24 -4.2 63 63 WSW 3 6 30.18 1022 10 16.0934 0 0
7:55 pm 19:55 Clear 35 1.8 25 -3.8 67 67 Calm 30.18 1022 10 16.0934 0 0
8:15 pm 20:15 Clear 33 0.4 24 -4.6 69 69 Calm 30.21 1023 10 16.0934 0 0
8:35 pm 20:35 Clear 32 -0.1 24 -4.3 74 74 Calm 30.21 1023 10 16.0934 0 0
8:55 pm 20:55 Clear 32 -0.2 24 -4.5 73 73 NW 5 7 30.21 1023 10 16.0934 0 0
9:15 pm 21:15 Clear 31 -0.5 25 -4.1 77 77 NNW 6 9 30.24 1024 10 16.0934 0 0
9:35 pm 21:35 Clear 29 -1.6 23 -5 78 78 NNW 3 6 30.27 1025 10 16.0934 0 0
9:55 pm 21:55 Clear 32 -0.1 24 -4.2 74 74 WNW 3 6 30.24 1024 10 16.0934 0 0
10:15 pm 22:15 Clear 28 -2.1 23 -5.1 80 80 NW 8 13 30.27 1025 10 16.0934 0 0
10:35 pm 22:35 Clear 29 -1.9 23 -4.9 80 80 NW 5 7 30.27 1025 10 16.0934 0 0
10:55 pm 22:55 Clear 29 -1.8 24 -4.7 81 81 NW 5 7 30.27 1025 10 16.0934 0 0
11:15 pm 23:15 Clear 28 -2.1 24 -4.7 83 83 WNW 7 11 30.27 1025 10 16.0934 0 0
11:35 pm 23:35 Clear 28 -2.5 23 -4.9 84 84 WNW 5 7 30.27 1025 10 16.0934 0 0
11:55 pm 23:55 Clear 28 -2.2 23 -4.8 83 83 WNW 8 13 30.27 1025 10 16.0934 0 0

Powered by AerisWeather